Theta_e
327 325 322 320 317 316 314 311 309 306 304 303 301 300 298 298 299 300 305 309 315 318 320 321 321 320 320 319 318 316 315 313 312 312 312 312 312 313 313 314 315 316 316
327 324 321 318 317 314 313 310 306 302 300 299 296 295 293 293 294 295 297 303 308 311 313 316 317 318 318 316 315 313 312 311 310 309 309 309 310 310 310 311 312 312 313
328 323 319 317 316 312 310 307 303 301 297 294 293 292 292 291 291 291 291 293 297 304 308 312 313 313 313 312 311 310 309 309 308 307 307 307 308 308 308 308 309 310 310
327 323 318 315 313 309 308 307 301 299 295 292 291 290 290 290 290 289 290 290 291 294 303 305 306 307 308 309 309 308 307 307 306 306 305 306 306 306 307 307 307 308 308
323 321 317 312 311 306 304 303 300 297 291 290 289 289 288 288 288 288 288 289 290 290 293 297 298 299 303 305 306 306 306 305 304 304 304 304 304 304 305 305 305 306 306
320 316 314 309 307 303 301 301 298 295 291 289 287 286 287 287 287 287 287 288 288 288 288 288 288 291 297 300 302 304 304 303 303 302 302 302 302 302 303 303 304 304 304
313 313 310 305 302 301 301 299 296 292 289 289 287 286 286 286 285 286 286 286 286 287 287 286 285 286 287 294 298 300 301 302 301 301 301 301 301 301 302 302 303 303 303
311 309 307 302 300 298 298 297 294 292 290 291 288 288 285 287 285 284 285 285 285 286 285 284 284 284 285 287 292 296 297 298 299 299 299 299 300 300 301 301 301 302 302
303 304 303 300 297 300 298 297 295 293 289 288 291 293 288 288 287 286 283 283 284 284 284 283 283 282 283 284 287 290 293 294 296 297 297 298 298 299 299 300 300 300 301
299 297 295 294 295 298 297 297 295 293 292 289 286 284 286 290 287 281 283 282 283 283 283 283 282 281 282 283 285 288 290 291 293 294 295 296 297 298 299 299 299 299 300
292 293 292 290 291 294 296 294 290 289 293 288 287 284 284 283 283 283 279 280 281 282 283 283 282 281 281 282 284 285 287 290 291 292 292 293 294 296 297 298 298 299 299
288 287 287 286 287 290 291 291 288 289 288 287 286 285 284 284 282 281 280 279 280 281 282 283 282 281 281 281 282 283 285 288 290 290 291 291 292 293 295 296 297 297 297
286 285 285 285 286 286 286 286 286 286 286 286 285 284 284 283 282 281 280 279 279 280 281 282 282 281 280 281 282 282 282 285 288 289 289 290 291 292 292 294 294 295 295
288 285 284 285 284 284 284 285 285 284 284 284 283 283 283 282 283 282 281 280 278 278 279 279 281 281 281 281 281 281 281 283 286 287 288 288 289 290 291 292 292 292 293
285 284 283 283 284 284 284 284 283 283 283 283 282 282 281 281 281 281 281 281 282 278 277 278 279 281 281 281 280 281 280 282 284 285 286 287 288 289 290 290 290 291 291
284 283 283 282 283 283 282 283 282 282 282 282 281 281 280 280 281 281 281 280 280 279 278 278 279 279 279 279 280 280 280 280 281 282 284 285 287 287 288 288 288 289 289
283 282 282 281 282 281 282 282 281 281 281 280 281 280 279 279 279 279 279 279 278 279 278 277 278 278 278 278 279 279 280 279 280 281 283 284 285 285 285 286 286 287 287
283 282 281 281 281 281 281 281 280 280 280 280 279 279 278 278 277 278 278 277 278 277 277 275 275 276 276 277 278 278 278 279 279 280 282 284 283 283 284 284 284 284 284
282 281 281 281 281 281 281 281 281 280 280 280 279 278 278 278 277 277 277 277 276 276 276 276 275 276 276 277 277 278 278 278 278 279 281 281 281 281 282 282 282 282 281
281 281 281 280 280 280 280 280 279 279 279 279 279 279 278 278 277 277 276 276 276 275 275 274 274 274 275 276 277 276 276 278 277 278 279 278 279 279 279 279 280 279 280
281 281 280 280 280 280 280 279 279 279 279 278 278 278 278 278 279 278 277 276 276 275 275 274 273 274 274 274 274 276 275 276 276 277 275 277 276 276 276 277 276 278 281
280 280 280 279 279 279 283 283 280 279 278 278 277 277 277 278 278 281 281 280 278 275 274 274 274 273 274 275 276 275 275 273 272 277 275 274 275 274 275 275 278 279 280
280 279 279 279 279 279 285 284 282 279 279 278 277 277 277 277 277 277 281 283 283 283 281 277 275 275 275 276 276 275 275 274 273 275 273 271 274 272 274 275 277 278 279
279 279 279 279 279 279 285 285 282 279 279 278 277 277 277 277 276 276 276 275 276 276 277 278 278 278 277 277 277 277 276 274 273 274 272 269 273 271 273 274 277 277 278
279 279 279 279 279 279 285 286 283 279 279 278 277 277 277 277 278 281 277 275 276 276 278 281 281 282 283 283 283 279 272 271 272 272 272 270 270 270 271 272 273 275 276
279 279 279 279 279 279 286 286 285 281 280 279 278 277 278 277 279 281 279 277 275 276 276 276 276 278 280 279 281 279 276 272 270 268 271 268 269 269 266 271 271 271 272
Wind_Speed
6 6 6 5 6 6 6 8 8 9 12 13 12 14 13 12 12 8 8 21 21 23 25 24 24 24 25 26 26 25 26 27 26 26 26 26 27 27 27 28 27 27 27
7 7 7 6 6 6 6 7 9 9 9 10 12 12 13 12 11 11 8 11 22 23 23 23 23 24 24 25 25 25 24 24 25 25 25 25 26 26 27 26 27 27 27
10 9 8 7 8 6 12 10 11 10 9 10 12 11 10 12 11 11 9 8 10 22 22 24 24 24 24 24 23 23 23 25 24 24 24 24 25 25 26 26 27 27 27
12 11 8 8 8 6 8 9 9 10 9 8 10 9 9 10 11 11 10 8 8 8 16 23 24 23 22 22 23 23 23 22 23 23 23 24 25 25 25 26 26 26 27
11 9 8 9 10 9 6 9 8 10 10 10 10 8 8 8 9 9 11 11 11 10 8 19 22 22 21 22 21 21 21 21 22 23 24 24 24 25 26 27 27 27 27
12 10 8 10 9 9 7 8 13 8 10 11 11 10 8 7 7 7 8 8 10 11 10 11 9 11 20 19 20 21 21 21 21 22 22 23 23 24 24 25 26 26 27
10 12 10 10 9 10 12 12 12 16 10 11 10 9 8 8 8 6 6 7 9 9 10 9 8 7 7 18 20 20 21 21 21 21 22 23 23 24 25 25 26 27 27
10 10 12 12 11 9 11 13 14 10 7 7 6 5 5 3 5 5 5 5 7 6 8 10 10 11 8 7 13 19 19 20 20 21 21 22 23 24 25 25 26 27 28
7 10 11 12 10 10 12 14 13 12 11 5 7 3 5 4 6 2 4 4 5 5 6 8 10 10 9 8 9 12 17 17 18 19 20 21 22 22 23 24 25 26 28
6 9 8 10 11 8 12 12 11 9 10 8 3 1 2 5 5 5 3 2 3 5 6 6 7 7 8 6 9 13 15 16 17 18 19 19 20 22 23 24 25 26 27
3 6 11 9 9 7 10 13 10 9 6 6 4 4 2 2 3 4 5 5 2 3 4 4 4 5 6 6 5 9 15 15 15 17 17 19 20 22 23 24 25 27 28
3 3 6 7 7 9 11 10 8 9 8 5 4 4 4 3 3 3 4 3 3 3 3 3 3 4 4 5 6 9 13 15 15 16 17 19 20 21 21 24 26 27 29
4 8 8 9 7 8 8 9 9 8 7 7 7 4 3 3 3 3 4 3 2 2 2 2 2 2 3 4 4 10 11 14 15 17 18 19 19 20 22 24 26 28 29
8 9 8 10 10 10 9 8 6 6 7 6 9 6 6 5 4 3 4 5 3 2 3 3 3 3 2 3 5 10 7 13 16 18 18 19 19 20 23 24 25 26 28
5 7 8 11 10 11 10 10 8 9 8 7 8 8 7 5 4 4 4 2 3 4 3 3 2 4 0 2 4 6 8 15 16 17 18 19 19 22 23 23 24 26 28
9 9 8 9 9 10 9 9 8 8 9 6 6 9 8 5 5 4 4 3 2 2 2 2 2 1 2 3 4 7 9 13 14 17 18 18 20 22 21 23 26 27 27
9 9 10 10 11 11 9 9 9 10 10 9 8 9 8 8 5 4 4 3 3 2 2 1 2 2 3 6 7 6 8 7 8 15 19 18 21 20 20 24 26 26 26
9 8 10 10 11 10 11 12 12 10 11 11 9 8 8 6 6 5 4 4 3 3 3 3 1 2 2 4 7 8 7 6 8 12 18 20 18 18 20 24 25 25 26
11 10 11 13 13 11 12 11 11 11 9 9 9 9 9 9 7 6 5 4 3 3 3 2 2 1 2 3 5 7 7 8 7 14 17 17 15 19 22 22 24 25 25
14 13 12 12 12 12 11 10 11 10 9 8 8 7 8 8 8 8 6 5 5 4 3 3 3 4 4 4 5 7 7 7 10 9 11 11 16 20 21 20 21 23 24
13 13 12 10 11 11 9 12 11 10 10 9 6 6 6 6 9 9 5 6 6 5 4 4 4 4 6 4 5 4 8 10 10 6 7 9 10 11 11 14 16 23 28
12 13 13 13 13 9 19 19 13 10 9 8 8 5 5 6 7 11 12 9 9 6 5 3 5 8 9 7 6 7 8 8 8 2 10 14 9 11 11 9 21 27 28
14 14 13 12 12 8 20 20 18 9 9 7 7 6 6 5 6 5 10 13 13 15 14 6 9 9 10 8 8 9 10 9 10 8 9 14 9 12 10 12 23 27 23
14 13 12 11 10 9 21 21 19 9 6 6 6 7 7 6 7 7 6 6 7 7 8 7 9 9 9 8 10 11 10 7 7 7 5 10 10 12 12 12 23 20 22
11 11 10 10 10 10 22 22 16 8 7 5 6 6 6 6 10 13 7 7 8 8 9 17 19 20 20 21 17 4 3 5 10 8 3 9 7 11 11 12 9 18 27
9 8 9 9 10 10 20 22 15 6 7 6 6 6 11 7 11 13 8 6 9 8 7 8 8 12 14 11 17 10 7 9 6 7 2 4 8 8 8 9 10 11 12
Wind_Direction
156 138 131 126 123 117 109 108 100 93 90 85 82 84 80 77 73 71 59 53 58 65 65 66 67 67 63 63 58 54 50 46 42 40 36 33 30 26 23 18 16 14 9
157 147 138 130 130 125 117 110 109 104 96 91 83 84 87 82 78 77 73 62 67 69 71 69 67 65 61 57 54 50 48 45 42 39 37 31 28 24 20 16 13 11 8
162 151 141 136 137 133 122 117 108 104 101 98 91 86 86 85 81 76 74 74 58 63 68 70 67 64 61 59 56 53 48 44 39 37 34 30 27 23 17 14 11 8 4
161 154 145 141 133 118 126 126 124 114 107 102 104 95 90 87 82 75 71 70 72 65 63 69 66 63 60 58 55 51 48 43 39 36 32 29 23 20 15 12 9 5 1
158 151 151 142 143 130 142 130 124 125 118 110 104 94 84 85 83 84 78 75 73 76 73 66 64 60 58 55 53 52 48 43 39 35 30 27 22 18 14 10 6 1 358
156 144 143 143 146 134 141 129 126 119 119 119 107 89 80 78 82 82 83 80 75 75 77 71 64 55 56 54 50 47 45 42 39 35 32 28 23 19 14 10 5 0 357
150 150 143 147 151 153 148 142 128 131 122 130 112 95 78 74 77 79 82 85 84 83 83 72 67 62 49 45 42 42 39 37 36 33 29 23 19 16 12 7 2 359 354
158 153 154 150 159 141 139 147 145 141 130 178 135 124 144 131 78 65 75 84 91 96 85 76 70 62 55 48 39 38 34 31 29 27 25 20 16 13 9 5 0 357 352
141 153 155 153 159 158 161 161 159 155 159 193 207 139 151 168 145 153 82 103 108 100 100 85 70 60 53 48 36 31 28 26 23 23 20 16 12 9 6 2 359 354 349
166 136 138 153 158 169 160 164 162 160 154 161 143 115 32 129 164 157 181 132 115 113 105 89 77 63 52 49 38 27 20 20 16 16 15 11 8 4 2 358 355 351 347
120 155 149 157 156 167 154 160 160 157 157 148 155 157 132 84 98 145 157 169 160 119 109 111 102 78 55 44 33 19 14 11 11 9 6 5 4 0 355 352 351 348 346
116 119 127 139 153 152 156 157 151 158 158 149 155 155 159 157 160 144 126 149 153 138 143 142 116 84 53 40 28 15 6 3 1 1 0 1 358 353 348 348 347 346 344
177 176 165 154 152 145 140 145 156 158 158 154 156 146 120 116 123 115 106 116 134 134 177 176 154 118 63 33 17 7 356 355 353 356 354 352 348 343 344 346 345 344 340
178 167 158 149 146 141 139 138 131 125 125 125 129 112 115 102 99 101 123 139 118 157 190 171 184 184 62 25 3 354 343 350 352 348 344 342 338 337 341 344 340 335 328
140 157 155 143 146 138 140 135 132 129 126 123 113 106 100 91 88 90 104 145 153 165 178 168 189 180 112 8 356 349 346 344 342 338 333 332 332 339 337 335 332 328 325
145 153 147 141 139 130 130 127 122 124 118 111 115 120 110 105 97 97 103 102 63 117 132 200 207 264 328 331 344 349 343 333 331 323 322 328 332 329 325 328 326 326 323
154 162 151 147 142 137 133 127 126 130 126 128 128 128 125 133 129 125 130 130 125 119 133 176 259 304 315 345 337 331 326 319 309 307 317 321 323 316 319 322 323 323 320
157 160 148 148 142 150 144 144 144 148 146 146 142 133 141 138 141 160 166 152 153 140 140 212 263 322 303 303 304 304 301 291 299 303 307 315 310 310 314 318 321 319 319
162 159 163 159 157 168 152 150 150 149 145 145 150 153 159 155 165 177 178 168 162 158 172 197 291 270 286 301 298 287 291 295 292 303 304 306 297 305 317 316 318 316 318
166 172 173 168 164 158 155 147 144 145 146 150 159 166 161 175 175 180 186 188 179 175 182 213 255 273 270 279 276 294 301 305 309 304 300 299 295 306 311 311 313 311 312
175 169 164 166 161 155 161 154 151 150 151 158 155 169 171 184 190 191 184 197 191 194 200 222 244 257 261 268 264 287 290 304 305 289 302 300 310 303 314 312 303 309 319
168 164 168 171 165 162 170 162 152 151 154 157 169 169 171 179 205 211 219 215 210 199 214 211 244 251 264 268 271 276 283 298 318 162 330 304 312 305 315 307 310 312 317
168 173 170 167 166 157 172 164 160 154 154 169 157 179 188 191 194 213 237 241 239 231 224 208 236 242 263 256 262 272 274 270 271 298 313 293 326 303 314 305 308 310 317
176 172 164 165 162 168 175 166 161 151 158 159 173 184 196 189 199 202 216 237 246 251 259 268 261 264 257 264 256 261 270 274 277 269 257 282 320 303 306 304 305 307 318
168 167 162 153 160 170 175 169 160 144 169 173 180 190 202 202 218 228 215 237 250 250 254 260 263 264 268 269 270 221 226 261 290 289 255 276 297 307 307 299 307 314 315
145 148 155 166 165 166 175 173 166 156 162 184 191 200 215 214 230 236 239 233 257 264 249 248 250 262 270 270 270 248 253 259 266 291 144 274 307 316 307 299 313 308 307